This demonstration page uses our WeatherBlox Daily Observations layout. Learn more.

Left ArrowRight Arrow

Hourly Observations for July 22, 2016

Temp ( °F °C ) Dew Point ( °F °C ) Humidity (%) Winds ( mph kmh ) Pressure ( in mb ) Visibility ( mi km ) Precip ( " mm )
12:53 am 00:53 Clear 75 23.9 68 20 79 79 Calm 30.11 1020 10 16 0.00 0.00
1:53 am 01:53 Clear 75 23.9 69 20.6 82 82 Calm 30.11 1020 10 16 0.00 0.00
2:53 am 02:53 Clear 72 22.2 68 20 87 87 Calm 30.08 1019 10 16 0.00 0.00
3:53 am 03:53 Clear 72 22.2 68 20 87 87 Calm 30.08 1019 10 16 0.00 0.00
4:53 am 04:53 Clear 71 21.7 68 20 90 90 Calm 30.08 1019 10 16 0.00 0.00
5:53 am 05:53 Clear 70 21.1 68 20 93 93 Calm 30.09 1019 10 16 0.00 0.00
6:53 am 06:53 Sunny 72 22.2 68 20 87 87 SSW 3 6 30.09 1019 10 16 0.00 0.00
7:53 am 07:53 Partly Cloudy 72 22.2 68 20 87 87 SSW 5 7 30.11 1020 10 16 0.00 0.00
8:53 am 08:53 Sunny 75 23.9 69 20.6 82 82 S 3 6 30.11 1020 10 16 0.00 0.00
9:53 am 09:53 Sunny 78 25.6 70 21.1 76 76 SSW 6 9 30.10 1019 10 16 0.00 0.00
10:53 am 10:53 Sunny 82 27.8 70 21.1 67 67 VRB 7 11 30.10 1019 10 16 0.00 0.00
11:53 am 11:53 Sunny 84 28.9 69 20.6 61 61 SW 5 7 30.11 1020 10 16 0.00 0.00
12:53 pm 12:53 Mostly Sunny 87 30.6 69 20.6 55 55 W 6 9 30.10 1019 10 16 0.00 0.00
1:53 pm 13:53 Sunny 89 31.7 69 20.6 52 52 SSW 7 11 30.09 1019 10 16 0.00 0.00
2:53 pm 14:53 Mostly Sunny 90 32.2 69 20.6 50 50 VRB 5 7 30.06 1018 10 16 0.00 0.00
3:53 pm 15:53 Mostly Sunny 91 32.8 70 21.1 50 50 SSE 8 13 30.03 1017 10 16 0.00 0.00
4:53 pm 16:53 Sunny 90 32.2 68 20 48 48 SE 7 11 30.01 1016 10 16 0.00 0.00
5:53 pm 17:53 Mostly Sunny 91 32.8 69 20.6 49 49 SSE 9 15 29.98 1015 10 16 0.00 0.00
6:53 pm 18:53 Sunny 91 32.8 68 20 47 47 SSW 7 11 29.98 1015 10 16 0.00 0.00
7:53 pm 19:53 Sunny 90 32.2 67 19.4 47 47 SSW 5 7 29.99 1016 10 16 0.00 0.00
8:01 pm 20:01 Sunny with Nearby Thunderstorms 90 32.2 68 20 48 48 S 5 7 29.97 1015 10 16 0.00 0.00
8:17 pm 20:17 Sunny 89 31.7 68 20 50 50 S 5 7 29.97 1015 10 16 0.00 0.00
8:53 pm 20:53 Mostly Clear 88 31.1 69 20.6 54 54 S 3 6 29.99 1016 10 16 0.00 0.00
9:53 pm 21:53 Clear 81 27.2 71 21.7 72 72 Calm 29.99 1016 10 16 0.00 0.00
10:53 pm 22:53 Clear 84 28.9 70 21.1 63 63 SSW 6 9 30.01 1016 10 16 0.00 0.00
11:53 pm 23:53 Clear 83 28.3 70 21.1 65 65 S 6 9 30.03 1017 10 16 0.00 0.00

Powered by AerisWeather